Location: Aldenham
(51.6667°N, 0.3500°W)
Time: 05:55:22
(UTC+00:00)

Vanguard 2 - All Passes

Search period start: 18 February 2026 00:00
Search period end: 28 February 2026 00:00
Orbit: 553 x 2897 km, 32.9° (Epoch: 17 February)

Date Brightness Start Highest point End Pass type
(mag) Time Alt. Az. Time Alt. Az. Time Alt. Az.
23 Feb - 05:27:26 10° SSW 05:28:59 11° S 05:30:24 10° S visible
24 Feb - 03:31:07 10° S 03:33:35 11° S 03:35:47 10° SSE visible
24 Feb - 05:38:31 10° SSW 05:40:36 12° S 05:42:28 10° SSE visible
25 Feb - 03:41:15 10° SSW 03:45:15 14° S 03:48:34 10° SE visible
25 Feb - 05:50:00 10° SSW 05:52:12 12° SSW 05:54:09 10° S visible
26 Feb - 01:46:39 10° S 01:49:21 11° SSE 01:51:47 10° SSE visible
26 Feb - 03:52:01 10° SSW 03:56:55 16° S 04:00:48 10° SE visible
26 Feb - 06:01:48 10° SW 06:03:46 11° SSW 06:05:32 10° S visible
27 Feb - 01:55:46 10° SSW 02:01:00 14° SSE 02:05:19 10° SE visible
27 Feb - 04:03:04 10° SW 04:08:34 17° S 04:12:47 10° SE visible
27 Feb - 06:14:05 10° SW 06:15:17 11° SSW 06:16:24 10° SSW visible
